Location: R�serve Fauniques des Laurentides
(47.3100°N, 71.1900°W)
Time: 03:26:06
(UTC-05:00)

Amateur Radio Satellites - All Passes

Search period start: 05 December 2016 02:56
Search period end: 06 December 2016 02:56
Location: R�serve Fauniques des Laurentides, 47.3100°N, 71.1900°W

Satellite Date Start Highest point End Downlink Frequencies (MHz)
Time Altitude Azimuth
CUBESAT XI-V 05 Dec 02:56:46 03:00:41 28° 65° (ENE) 03:04:37 437.345
MOZHAYETS 4 05 Dec 02:57:08 03:01:35 50° 261° (W) 03:06:04
ITAMSAT 1 05 Dec 02:58:52 03:04:05 72° 103° (ESE) 03:09:14 435.822/435.867
YUBILEINY 05 Dec 03:09:07 03:10:58 11° 43° (NE) 03:12:50 435.215
SO-50 05 Dec 03:32:48 03:37:01 35° 42° (NE) 03:41:07 436.795
GONETS M04 05 Dec 03:33:17 03:37:42 15° 311° (NW) 03:42:09
KKS-1 05 Dec 03:36:53 03:41:08 42° 261° (W) 03:45:25 437.445
BRITE-PL 05 Dec 03:37:59 03:41:04 15° 88° (E) 03:44:12 437.365/2234.400
PHONESAT 2.4 05 Dec 03:40:19 03:42:09 17° 188° (S) 03:43:58 2401.200-2431.200
STARS 05 Dec 03:46:08 03:50:32 69° 257° (WSW) 03:55:00 437.465
Gurwin Techsat 1B 05 Dec 04:00:59 04:03:02 12° 308° (NW) 04:05:05 435.225
AO-85 05 Dec 04:09:51 04:13:22 21° 325° (NW) 04:16:42 145.980
BEESAT 3 05 Dec 04:23:00 04:25:54 20° 114° (ESE) 04:28:49 437.485
STRAND 1 05 Dec 04:27:58 04:30:31 14° 55° (NE) 04:33:05 437.568
CUBESAT XI-V 05 Dec 04:33:44 04:37:57 35° 264° (W) 04:42:12 437.345
HORYU 2 05 Dec 04:39:10 04:43:10 32° 96° (E) 04:47:07 437.375
ITAMSAT 1 05 Dec 04:39:25 04:43:01 19° 302° (WNW) 04:46:36 435.822/435.867
AO-7 05 Dec 04:43:12 04:51:17 55° 299° (WNW) 04:59:21 29.400- 29.500
BEESAT 2 05 Dec 04:49:41 04:52:24 18° 113° (ESE) 04:55:08 435.950
Cubesat XI-IV 05 Dec 04:50:37 04:53:36 15° 88° (E) 04:56:33 437.490
NOAA 15 05 Dec 04:51:41 04:55:02 17° 89° (E) 04:58:23 137.62
GOMX 1 05 Dec 04:57:12 05:02:08 34° 94° (E) 05:07:05 467.674
AIST 1 05 Dec 05:00:25 05:00:53 10° 61° (ENE) 05:01:20
Cosmos 2504 05 Dec 05:01:07 05:08:05 25° 59° (ENE) 05:14:48 435.465 / 435.565
YUBILEINY 05 Dec 05:02:23 05:10:46 45° 70° (ENE) 05:19:06 435.215
SO-50 05 Dec 05:13:18 05:17:30 38° 241° (WSW) 05:21:38 436.795
DOVE 4 05 Dec 05:14:28 05:18:35 22° 90° (E) 05:22:35 437.250
BRITE-PL 05 Dec 05:14:45 05:20:06 87° 287° (WNW) 05:25:45 437.365/2234.400
Cosmos 2491 05 Dec 05:34:55 05:42:12 31° 81° (E) 05:49:28 435.465 / 435.565
BEESAT 3 05 Dec 05:59:25 06:03:13 48° 313° (NW) 06:07:05 437.485
NOAA 18 05 Dec 06:02:41 06:07:54 40° 98° (E) 06:13:03 137.9125
CUTE-I 05 Dec 06:03:23 06:08:43 62° 102° (ESE) 06:13:58 437.470
STRAND 1 05 Dec 06:03:46 06:08:55 81° 74° (ENE) 06:14:04 437.568
LilacSat-2 05 Dec 06:07:21 06:11:10 86° 103° (ESE) 06:14:56 437.200
HORYU 2 05 Dec 06:15:47 06:19:40 30° 294° (WNW) 06:23:30 437.375
HO-68 05 Dec 06:24:11 06:29:40 23° 90° (E) 06:35:07 435.675
BEESAT 2 05 Dec 06:25:56 06:29:49 54° 311° (NW) 06:33:46 435.950
RS-15 05 Dec 06:27:44 06:38:16 41° 107° (ESE) 06:49:11 29.354- 29.394
Cubesat XI-IV 05 Dec 06:28:59 06:34:22 84° 287° (WNW) 06:39:42 437.490
NOAA 15 05 Dec 06:30:06 06:35:23 74° 288° (WNW) 06:40:39 137.62
AIST 1 05 Dec 06:34:48 06:39:15 83° 82° (E) 06:43:39
GOMX 1 05 Dec 06:35:11 06:40:13 41° 292° (WNW) 06:45:19 467.674
AO-7 05 Dec 06:37:32 06:42:18 17° 321° (NW) 06:47:04 29.400- 29.500
CINEMA 3 05 Dec 06:41:15 06:45:44 35° 95° (E) 06:50:01 145.822/145.860
DOVE 4 05 Dec 06:51:23 06:56:36 58° 289° (WNW) 07:01:43 437.250
Cosmos 2504 05 Dec 06:53:50 07:02:47 89° 263° (W) 07:11:14 435.465 / 435.565
BRITE-PL 05 Dec 06:54:47 06:57:55 16° 302° (WNW) 07:01:08 437.365/2234.400
YUBILEINY 05 Dec 06:59:21 07:07:39 48° 272° (W) 07:15:58 435.215
AIST 2 05 Dec 07:07:28 07:09:40 14° 110° (ESE) 07:11:53 435.215
CUBEBUG 2 05 Dec 07:07:46 07:10:40 17° 89° (E) 07:13:29 437.445
CUTE 1.7 + AOD 2 05 Dec 07:08:13 07:12:10 37° 97° (E) 07:16:05 437.475
CANX-2 05 Dec 07:25:50 07:30:03 67° 101° (E) 07:34:14 2200.000
Cosmos 2491 05 Dec 07:29:39 07:38:23 68° 283° (WNW) 07:47:09 435.465 / 435.565
AAUSAT CUBESAT 2 05 Dec 07:37:21 07:40:57 28° 95° (E) 07:44:32 437.432
BEESAT 3 05 Dec 07:40:21 07:41:48 12° 334° (NNW) 07:43:16 437.485
Oscar 11 05 Dec 07:41:07 07:43:11 13° 88° (E) 07:45:15 145.826/435.025
NOAA 18 05 Dec 07:43:30 07:48:29 35° 297° (WNW) 07:53:27 137.9125
CUTE-I 05 Dec 07:44:16 07:48:19 23° 301° (WNW) 07:52:22 437.470
STRAND 1 05 Dec 07:45:55 07:48:43 15° 272° (W) 07:51:32 437.568
UWE-3 05 Dec 07:51:55 07:55:45 30° 95° (E) 07:59:28 435.000/436.395/437.385
SEEDS 05 Dec 07:53:35 07:57:48 79° 104° (ESE) 08:01:59 437.485
PRISM 05 Dec 07:54:47 07:58:50 80° 75° (ENE) 08:02:57 437.425
COMPASS 1 05 Dec 08:06:07 08:10:16 73° 102° (ESE) 08:14:26 437.405
BEESAT 2 05 Dec 08:06:42 08:08:31 13° 333° (NNW) 08:10:19 435.950
UNISAT 6 05 Dec 08:07:59 08:11:59 29° 66° (ENE) 08:15:57 437.425
Cubesat XI-IV 05 Dec 08:10:42 08:13:38 15° 306° (NW) 08:16:34 437.490
HO-68 05 Dec 08:10:55 08:18:09 79° 289° (WNW) 08:25:20 435.675
NOAA 15 05 Dec 08:11:52 08:14:17 13° 307° (NW) 08:16:41 137.62
AIST 1 05 Dec 08:15:06 08:16:07 11° 279° (W) 08:17:07
CINEMA 3 05 Dec 08:18:29 08:22:46 31° 294° (WNW) 08:26:53 145.822/145.860
CUSAT 1 05 Dec 08:24:43 08:26:15 13° 94° (E) 08:27:41 437.405
DOVE 4 05 Dec 08:32:07 08:33:11 11° 308° (NW) 08:34:15 437.250
ZACube-1 05 Dec 08:35:14 08:39:25 51° 99° (E) 08:43:29 437.345
TIGRISAT 05 Dec 08:37:41 08:42:12 49° 71° (ENE) 08:46:42 435.000
RS-15 05 Dec 08:38:04 08:49:59 74° 313° (NW) 09:02:26 29.354- 29.394
ANTELSAT 05 Dec 08:38:49 08:43:23 53° 71° (ENE) 08:47:55 437.575/2403.000
CUBEBUG 2 05 Dec 08:43:18 08:47:41 54° 288° (WNW) 08:51:53 437.445
AIST 2 05 Dec 08:43:28 08:47:35 73° 310° (NW) 08:51:46 435.215
FUNcube-1 05 Dec 08:43:32 08:47:46 58° 101° (E) 08:51:52 145.935
CUTE 1.7 + AOD 2 05 Dec 08:44:28 08:47:49 23° 295° (WNW) 08:51:11 437.475
DELFI C3 05 Dec 08:45:31 08:48:39 22° 93° (E) 08:51:46 145.870
Cosmos 2504 05 Dec 08:48:44 08:54:52 22° 284° (WNW) 09:00:52 435.465 / 435.565
DANDE 05 Dec 08:59:38 09:01:51 14° 93° (E) 09:03:50 436.750
JAS-2 05 Dec 09:00:47 09:05:55 27° 63° (ENE) 09:10:38 435.910
NANOSAT C BR1 05 Dec 09:01:28 09:03:05 12° 58° (ENE) 09:04:41 145.865
CANX-2 05 Dec 09:03:04 09:05:25 15° 299° (WNW) 09:07:45 2200.000
QB50P2 05 Dec 09:05:24 09:07:49 15° 60° (ENE) 09:10:12 145.880/145.840
POLYITAN 1 05 Dec 09:06:05 09:08:24 14° 59° (ENE) 09:10:41 437.675
AAUSAT CUBESAT 2 05 Dec 09:12:48 09:16:24 29° 292° (WNW) 09:20:00 437.432
Oscar 11 05 Dec 09:15:31 09:19:48 68° 287° (WNW) 09:24:04 145.826/435.025
AO-85 05 Dec 09:16:29 09:19:57 26° 39° (NE) 09:23:18 145.980
QB50P1 05 Dec 09:18:42 09:21:39 18° 62° (ENE) 09:24:36 145.935-145.965
DUCHIFAT 1 05 Dec 09:22:47 09:25:37 18° 62° (ENE) 09:28:27 145.980
UWE-3 05 Dec 09:28:23 09:32:11 30° 294° (WNW) 09:35:53 435.000/436.395/437.385
SEEDS 05 Dec 09:31:04 09:32:54 13° 301° (WNW) 09:34:43 437.485
Cosmos 2491 05 Dec 09:31:53 09:37:12 17° 308° (NW) 09:42:34 435.465 / 435.565
PRISM 05 Dec 09:34:03 09:34:42 10° 272° (W) 09:35:20 437.425
POPSAT HIP 1 05 Dec 09:39:16 09:42:54 28° 66° (ENE) 09:46:33 437.405
GONETS M04 05 Dec 09:40:06 09:46:28 22° 57° (ENE) 09:52:49
COMPASS 1 05 Dec 09:43:16 09:45:17 13° 300° (WNW) 09:47:18 437.405
UNISAT 6 05 Dec 09:44:13 09:48:34 37° 263° (W) 09:52:54 437.425
Cosmos 2499 05 Dec 09:56:42 10:03:58 28° 61° (ENE) 10:10:50 435.465 / 435.565
HO-68 05 Dec 09:59:56 10:04:49 20° 311° (NW) 10:09:43 435.675
CUSAT 1 05 Dec 10:05:34 10:08:00 21° 286° (WNW) 10:10:12 437.405
HUMSAT D 05 Dec 10:11:59 10:16:05 81° 285° (WNW) 10:20:09 437.325/437.525
ZACube-1 05 Dec 10:12:24 10:15:20 18° 298° (WNW) 10:18:12 437.345
CUBEBUG 1 05 Dec 10:15:20 10:16:25 11° 87° (E) 10:17:30 437.445
TIGRISAT 05 Dec 10:15:35 10:19:08 21° 268° (W) 10:22:40 435.000
ANTELSAT 05 Dec 10:16:59 10:20:23 20° 269° (W) 10:23:46 437.575/2403.000
DELFI C3 05 Dec 10:19:56 10:23:34 34° 291° (WNW) 10:27:10 145.870
FUNcube-1 05 Dec 10:20:53 10:23:32 16° 299° (WNW) 10:26:10 145.935
BUGSAT 1 05 Dec 10:22:46 10:26:22 28° 66° (ENE) 10:30:00 437.445
AIST 2 05 Dec 10:24:14 10:26:48 16° 330° (NNW) 10:29:23 435.215
PCSat 05 Dec 10:33:38 10:37:53 24° 108° (ESE) 10:42:09 145.827
NANOSAT C BR1 05 Dec 10:33:51 10:38:08 89° 257° (WSW) 10:42:27 145.865
Oscar 19 05 Dec 10:38:02 10:40:51 15° 55° (NE) 10:43:40 437.125/150
QB50P2 05 Dec 10:38:48 10:43:05 70° 258° (WSW) 10:47:23 145.880/145.840
POLYITAN 1 05 Dec 10:39:21 10:43:38 73° 257° (WSW) 10:47:57 437.675
DANDE 05 Dec 10:40:05 10:44:27 46° 283° (WNW) 10:47:48 436.750
JAS-2 05 Dec 10:44:25 10:50:46 56° 259° (W) 10:56:26 435.910
QB50P1 05 Dec 10:52:51 10:57:02 53° 260° (W) 11:01:16 145.935-145.965
RS-15 05 Dec 10:53:54 11:04:59 38° 343° (NNW) 11:16:17 29.354- 29.394
DUCHIFAT 1 05 Dec 10:56:43 11:00:53 56° 259° (W) 11:05:07 145.980
AO-85 05 Dec 10:56:44 11:00:31 42° 240° (WSW) 11:04:11 145.980
BEESAT 3 05 Dec 11:00:42 11:00:58 10° 23° (NNE) 11:01:14 437.485
SPROUT 05 Dec 11:02:33 11:05:04 15° 90° (E) 11:07:33 437.525
ESTCUBE 1 05 Dec 11:09:52 11:14:21 60° 101° (E) 11:18:48 437.505/2401.250
POPSAT HIP 1 05 Dec 11:14:43 11:18:35 33° 263° (W) 11:22:30 437.405
AISAT 05 Dec 11:20:32 11:24:39 35° 97° (E) 11:28:45 437.250
GONETS M04 05 Dec 11:36:00 11:44:47 84° 81° (E) 11:53:32
CUBEBUG 1 05 Dec 11:48:51 11:53:20 87° 285° (WNW) 11:57:47 437.445
Cosmos 2499 05 Dec 11:49:23 11:58:06 77° 265° (W) 12:06:11 435.465 / 435.565
50 SAT 05 Dec 11:55:29 11:59:03 67° 103° (ESE) 12:02:35 437.505
VELOX 1 05 Dec 11:57:18 12:01:48 77° 103° (ESE) 12:06:15 145.980
BUGSAT 1 05 Dec 11:57:51 12:01:38 32° 264° (W) 12:05:29 437.445
Gurwin Techsat 1B 05 Dec 12:03:38 12:08:34 40° 67° (ENE) 12:13:32 435.225
AO-7 05 Dec 12:03:44 12:09:26 21° 43° (NE) 12:15:10 29.400- 29.500
DX 1 05 Dec 12:13:36 12:17:59 62° 102° (ESE) 12:22:20 434.975-435.025
Oscar 19 05 Dec 12:14:17 12:19:25 87° 75° (ENE) 12:24:37 437.125/150
PCSat 05 Dec 12:15:30 12:20:52 61° 308° (NW) 12:26:16 145.827
UKube-1 05 Dec 12:22:31 12:26:49 58° 101° (E) 12:31:05 .
TISAT 1 05 Dec 12:27:07 12:30:15 20° 92° (E) 12:33:21 437.305
BEESAT 3 05 Dec 12:35:59 12:39:43 36° 45° (NE) 12:43:26 437.485
SPROUT 05 Dec 12:37:08 12:41:23 60° 288° (WNW) 12:45:36 437.525
ITAMSAT 1 05 Dec 12:42:04 12:46:10 24° 61° (ENE) 12:50:16 435.822/435.867
ESTCUBE 1 05 Dec 12:47:41 12:50:44 18° 299° (WNW) 12:53:45 437.505/2401.250
AISAT 05 Dec 12:57:11 13:01:01 28° 295° (WNW) 13:04:49 437.250
BEESAT 2 05 Dec 13:03:16 13:07:00 34° 44° (NE) 13:10:42 435.950
RS-15 05 Dec 13:10:26 13:21:43 38° 17° (NNE) 13:32:56 29.354- 29.394
CUBEBUG 1 05 Dec 13:27:10 13:28:55 12° 303° (WNW) 13:30:39 437.445
50 SAT 05 Dec 13:30:50 13:31:50 11° 299° (WNW) 13:32:50 437.505
SWISSCUBE 05 Dec 13:32:13 13:35:58 23° 93° (E) 13:39:41 437.505
GONETS M04 05 Dec 13:34:09 13:40:31 23° 282° (WNW) 13:46:54
VELOX 1 05 Dec 13:35:14 13:37:40 15° 302° (WNW) 13:40:06 145.980
BEESAT 05 Dec 13:36:22 13:40:06 22° 93° (E) 13:43:48 436.000
AUBIESAT-1 05 Dec 13:39:56 13:43:10 19° 96° (E) 13:46:21 437.475
Gurwin Techsat 1B 05 Dec 13:43:53 13:48:36 32° 265° (W) 13:53:21 435.225
Cosmos 2499 05 Dec 13:44:33 13:49:38 17° 287° (WNW) 13:54:32 435.465 / 435.565
DX 1 05 Dec 13:50:53 13:53:44 17° 300° (WNW) 13:56:33 434.975-435.025
M-CUBED/EXP-1 PRIME 05 Dec 13:50:54 13:55:00 29° 100° (E) 13:58:58 437.505
AO-7 05 Dec 13:52:38 14:00:51 71° 65° (ENE) 14:09:09 29.400- 29.500
Oscar 19 05 Dec 13:57:01 13:59:28 13° 273° (W) 14:01:55 437.125/150
UKube-1 05 Dec 13:59:33 14:02:26 18° 299° (WNW) 14:05:19 .
PCSat 05 Dec 14:01:54 14:05:24 17° 330° (NNW) 14:08:56 145.827
TISAT 1 05 Dec 14:02:03 14:06:05 43° 290° (WNW) 14:10:05 437.305
ITUPSAT 1 05 Dec 14:03:00 14:07:28 38° 98° (E) 14:11:53 437.325
BEESAT 3 05 Dec 14:13:49 14:17:15 28° 243° (WSW) 14:20:39 437.485
ITAMSAT 1 05 Dec 14:20:09 14:25:17 56° 259° (W) 14:30:26 435.822/435.867
BEESAT 2 05 Dec 14:41:09 14:44:45 31° 242° (WSW) 14:48:19 435.950
MOZHAYETS 4 05 Dec 14:48:58 14:52:58 29° 95° (E) 14:56:57
BRITE-PL 05 Dec 14:52:31 14:55:35 19° 60° (ENE) 14:58:49 437.365/2234.400
SWISSCUBE 05 Dec 15:09:25 15:14:00 47° 291° (WNW) 15:18:31 437.505
AUBIESAT-1 05 Dec 15:13:21 15:17:55 58° 294° (WNW) 15:22:19 437.475
BEESAT 05 Dec 15:13:33 15:18:07 47° 291° (WNW) 15:22:40 436.000
AIST 2 05 Dec 15:23:44 15:27:31 30° 41° (NE) 15:31:16 435.215
RS-15 05 Dec 15:24:16 15:36:44 74° 48° (NE) 15:48:51 29.354- 29.394
KKS-1 05 Dec 15:24:36 15:28:30 28° 95° (E) 15:32:23 437.445
M-CUBED/EXP-1 PRIME 05 Dec 15:25:07 15:29:30 39° 298° (WNW) 15:33:46 437.505
STARS 05 Dec 15:33:15 15:36:12 17° 91° (E) 15:39:08 437.465
HORYU 2 05 Dec 15:39:49 15:44:04 44° 69° (ENE) 15:48:21 437.375
Cosmos 2491 05 Dec 15:40:21 15:46:08 19° 54° (NE) 15:51:52 435.465 / 435.565
ITUPSAT 1 05 Dec 15:41:06 15:45:10 29° 296° (WNW) 15:49:13 437.325
AO-7 05 Dec 15:47:15 15:54:17 30° 266° (W) 16:01:22 29.400- 29.500
CUTE-I 05 Dec 15:50:07 15:54:13 23° 60° (ENE) 15:58:19 437.470
NOAA 18 05 Dec 15:53:59 15:57:41 19° 55° (NE) 16:01:23 137.9125
O/OREOS (USA 219) 05 Dec 15:55:14 15:59:45 68° 112° (ESE) 16:04:18 437.305
ISS 05 Dec 16:02:34 16:05:14 23° 140° (SE) 16:07:55 145.825
GOMX 1 05 Dec 16:08:26 16:12:48 43° 68° (ENE) 16:17:29 467.674
NOAA 15 05 Dec 16:14:19 16:19:05 37° 65° (ENE) 16:23:53 137.62
Cubesat XI-IV 05 Dec 16:14:56 16:19:44 34° 64° (ENE) 16:24:33 437.490
DOVE 4 05 Dec 16:22:39 16:26:48 29° 64° (ENE) 16:31:10 437.250
MOZHAYETS 4 05 Dec 16:26:04 16:30:09 33° 293° (WNW) 16:34:13
CUBESAT XI-V 05 Dec 16:26:26 16:30:54 44° 98° (E) 16:35:22 437.345
BRITE-PL 05 Dec 16:29:25 16:33:39 54° 261° (W) 16:38:12 437.365/2234.400
AUBIESAT-1 05 Dec 16:50:46 16:51:21 10° 313° (NW) 16:51:56 437.475
LilacSat-2 05 Dec 16:51:51 16:55:40 65° 75° (ENE) 16:59:30 437.200
HO-68 05 Dec 16:56:43 17:02:23 26° 54° (NE) 17:08:04 435.675
KKS-1 05 Dec 17:01:03 17:05:06 34° 293° (WNW) 17:09:07 437.445
AIST 2 05 Dec 17:02:07 17:06:05 40° 241° (WSW) 17:10:03 435.215
STARS 05 Dec 17:08:33 17:12:54 55° 289° (WNW) 17:17:12 437.465
HORYU 2 05 Dec 17:17:21 17:20:49 22° 267° (W) 17:24:19 437.375
CUTE-I 05 Dec 17:28:31 17:33:50 62° 258° (WSW) 17:39:11 437.470
NOAA 18 05 Dec 17:32:06 17:37:39 84° 254° (WSW) 17:43:16 137.9125
PCSat 05 Dec 17:34:37 17:37:19 14° 24° (NNE) 17:39:59 145.827
Cosmos 2491 05 Dec 17:36:00 17:44:45 74° 79° (ENE) 17:53:27 435.465 / 435.565
O/OREOS (USA 219) 05 Dec 17:36:27 17:39:39 18° 312° (NW) 17:42:51 437.305
RS-15 05 Dec 17:37:27 17:48:29 41° 253° (WSW) 17:59:13 29.354- 29.394
ISS 05 Dec 17:38:11 17:41:29 73° 338° (NNW) 17:44:48 145.825
CINEMA 3 05 Dec 17:45:03 17:49:47 46° 69° (ENE) 17:54:35 145.822/145.860
Cosmos 2504 05 Dec 17:46:22 17:51:08 16° 72° (ENE) 17:56:00 435.465 / 435.565
GOMX 1 05 Dec 17:47:21 17:51:06 24° 269° (W) 17:55:07 467.674
NOAA 15 05 Dec 17:54:10 17:58:54 34° 264° (W) 18:03:39 137.62
Cubesat XI-IV 05 Dec 17:54:45 17:59:45 38° 263° (W) 18:04:47 437.490
DOVE 4 05 Dec 17:59:45 18:04:17 41° 264° (W) 18:09:08 437.250
CUTE 1.7 + AOD 2 05 Dec 18:03:41 18:07:37 39° 70° (ENE) 18:11:33 437.475
CUBESAT XI-V 05 Dec 18:04:19 18:08:03 24° 296° (WNW) 18:11:47 437.345
YUBILEINY 05 Dec 18:07:30 18:15:33 44° 87° (E) 18:23:40 435.215
CUBEBUG 2 05 Dec 18:08:13 18:11:58 23° 64° (ENE) 18:15:41 437.445
STRAND 1 05 Dec 18:11:47 18:15:41 21° 92° (E) 18:19:32 437.568
CANX-2 05 Dec 18:21:16 18:25:27 69° 74° (ENE) 18:29:40 2200.000
LilacSat-2 05 Dec 18:29:04 18:30:23 11° 272° (W) 18:31:42 437.200
AAUSAT CUBESAT 2 05 Dec 18:30:29 18:34:01 28° 67° (ENE) 18:37:32 437.432
Oscar 11 05 Dec 18:38:49 18:41:32 17° 61° (ENE) 18:44:15 145.826/435.025
HO-68 05 Dec 18:42:15 18:49:25 79° 254° (WSW) 18:56:40 435.675
SEEDS 05 Dec 18:47:55 18:52:04 79° 77° (ENE) 18:56:15 437.485
CUSAT 1 05 Dec 18:50:29 18:52:43 16° 72° (ENE) 18:55:15 437.405
UWE-3 05 Dec 18:51:14 18:55:31 38° 69° (ENE) 18:59:47 435.000/436.395/437.385
COMPASS 1 05 Dec 18:59:27 19:03:34 72° 74° (ENE) 19:07:41 437.405
AIST 1 05 Dec 19:07:15 19:11:17 40° 92° (E) 19:15:22
ISS 05 Dec 19:15:11 19:18:18 37° 358° (N) 19:21:26 145.825
NOAA 18 05 Dec 19:16:37 19:19:09 13° 273° (W) 19:21:41 137.9125
PCSat 05 Dec 19:17:03 19:22:13 42° 47° (NE) 19:27:21 145.827
CINEMA 3 05 Dec 19:23:02 19:27:05 25° 268° (W) 19:31:14 145.822/145.860
SO-50 05 Dec 19:30:02 19:34:15 32° 117° (ESE) 19:38:25 436.795
HUMSAT D 05 Dec 19:33:05 19:34:52 13° 59° (ENE) 19:36:39 437.325/437.525
ZACube-1 05 Dec 19:33:20 19:37:50 61° 73° (ENE) 19:42:16 437.345
Cosmos 2491 05 Dec 19:33:51 19:40:45 27° 280° (W) 19:47:39 435.465 / 435.565
DELFI C3 05 Dec 19:34:26 19:37:20 20° 65° (ENE) 19:40:15 145.870
Cosmos 2504 05 Dec 19:34:29 19:42:49 72° 94° (E) 19:51:38 435.465 / 435.565
CUTE 1.7 + AOD 2 05 Dec 19:40:20 19:43:36 21° 267° (W) 19:46:52 437.475
FUNcube-1 05 Dec 19:41:21 19:45:51 68° 74° (ENE) 19:50:17 145.935
CUBEBUG 2 05 Dec 19:43:41 19:48:17 48° 261° (W) 19:52:53 437.445
STRAND 1 05 Dec 19:50:13 19:55:12 55° 290° (WNW) 20:00:10 437.568
CANX-2 05 Dec 19:59:57 20:01:47 13° 272° (W) 20:03:38 2200.000
YUBILEINY 05 Dec 20:04:00 20:12:19 48° 289° (WNW) 20:20:45 435.215
AAUSAT CUBESAT 2 05 Dec 20:05:51 20:09:26 29° 265° (W) 20:13:03 437.432
Oscar 11 05 Dec 20:12:57 20:17:13 61° 259° (W) 20:21:30 145.826/435.025
SEEDS 05 Dec 20:27:21 20:28:20 11° 273° (W) 20:29:18 437.485
UWE-3 05 Dec 20:28:05 20:32:03 27° 266° (W) 20:36:00 435.000/436.395/437.385
CUSAT 1 05 Dec 20:31:19 20:34:35 39° 262° (W) 20:38:45 437.405
HO-68 05 Dec 20:34:13 20:38:17 16° 274° (W) 20:42:24 435.675
COMPASS 1 05 Dec 20:38:07 20:39:36 12° 272° (W) 20:41:06 437.405
ESTCUBE 1 05 Dec 20:39:17 20:40:35 11° 56° (NE) 20:41:54 437.505/2401.250
AIST 1 05 Dec 20:45:43 20:49:03 21° 291° (WNW) 20:52:26
ISS 05 Dec 20:51:54 20:55:11 57° 18° (NNE) 20:58:28 145.825
PCSat 05 Dec 21:00:36 21:05:34 37° 247° (WSW) 21:10:30 145.827
HUMSAT D 05 Dec 21:05:41 21:09:54 80° 255° (WSW) 21:14:06 437.325/437.525
PRISM 05 Dec 21:08:03 21:12:14 83° 105° (ESE) 21:16:24 437.425
DELFI C3 05 Dec 21:08:15 21:11:55 38° 262° (W) 21:15:38 145.870
SO-50 05 Dec 21:10:06 21:14:38 43° 316° (NW) 21:19:06 436.795
ZACube-1 05 Dec 21:11:37 21:14:29 16° 270° (W) 21:17:20 437.345
DANDE 05 Dec 21:13:10 21:15:48 45° 261° (W) 21:18:52 436.750
CUBEBUG 1 05 Dec 21:13:43 21:16:08 15° 59° (ENE) 21:18:35 437.445
FUNcube-1 05 Dec 21:20:00 21:22:31 15° 271° (W) 21:25:01 145.935
VELOX 1 05 Dec 21:23:43 21:25:53 14° 58° (ENE) 21:28:03 145.980
Cosmos 2504 05 Dec 21:29:45 21:37:03 31° 297° (WNW) 21:44:41 435.465 / 435.565
UNISAT 6 05 Dec 21:32:37 21:36:44 36° 97° (E) 21:40:44 437.425
DX 1 05 Dec 21:39:35 21:40:44 11° 56° (NE) 21:41:53 434.975-435.025
JAS-2 05 Dec 21:51:41 21:54:04 13° 88° (E) 21:56:28 435.910
SPROUT 05 Dec 21:58:56 22:01:54 19° 62° (ENE) 22:04:53 437.525
TIGRISAT 05 Dec 22:02:35 22:07:01 69° 102° (ESE) 22:11:18 435.000
ANTELSAT 05 Dec 22:03:55 22:08:23 75° 102° (ESE) 22:12:42 437.575/2403.000
YUBILEINY 05 Dec 22:09:13 22:11:56 12° 316° (NW) 22:14:39 435.215
ESTCUBE 1 05 Dec 22:12:09 22:16:37 79° 74° (ENE) 22:21:08 437.505/2401.250
NANOSAT C BR1 05 Dec 22:17:04 22:18:39 12° 88° (E) 22:20:14 145.865
AISAT 05 Dec 22:20:34 22:24:47 45° 69° (ENE) 22:29:03 437.250
QB50P2 05 Dec 22:21:43 22:24:16 15° 90° (E) 22:26:49 145.880/145.840
POLYITAN 1 05 Dec 22:22:22 22:24:47 15° 90° (E) 22:27:11 437.675
ISS 05 Dec 22:28:33 22:31:36 33° 216° (SW) 22:34:36 145.825
50 SAT 05 Dec 22:33:35 22:36:56 43° 71° (ENE) 22:40:17 437.505
QB50P1 05 Dec 22:34:59 22:38:07 20° 92° (E) 22:41:13 145.935-145.965
DUCHIFAT 1 05 Dec 22:38:21 22:41:19 18° 92° (E) 22:44:15 145.980
Cosmos 2499 05 Dec 22:38:54 22:44:35 20° 75° (ENE) 22:50:22 435.465 / 435.565
PRISM 05 Dec 22:45:15 22:46:54 12° 302° (WNW) 22:48:35 437.425
CUBEBUG 1 05 Dec 22:47:31 22:51:52 73° 258° (WSW) 22:56:17 437.445
GONETS M04 05 Dec 22:47:51 22:53:37 20° 75° (ENE) 22:59:21
SO-50 05 Dec 22:53:55 22:56:17 14° 338° (NNW) 22:58:38 436.795
POPSAT HIP 1 05 Dec 22:55:59 22:59:48 31° 96° (E) 23:03:34 437.405
VELOX 1 05 Dec 22:57:17 23:01:43 83° 258° (WSW) 23:06:10 145.980
UNISAT 6 05 Dec 23:09:37 23:13:18 26° 295° (WNW) 23:16:53 437.425
DX 1 05 Dec 23:11:49 23:16:09 80° 75° (ENE) 23:20:33 434.975-435.025
UKube-1 05 Dec 23:19:40 23:23:58 73° 73° (ENE) 23:28:18 .
TISAT 1 05 Dec 23:21:34 23:24:56 23° 64° (ENE) 23:28:19 437.305
SPROUT 05 Dec 23:33:14 23:37:27 53° 260° (W) 23:41:42 437.525
JAS-2 05 Dec 23:34:43 23:39:55 84° 286° (WNW) 23:45:17 435.910
BUGSAT 1 05 Dec 23:36:14 23:39:55 29° 95° (E) 23:43:33 437.445
ITUPSAT 1 05 Dec 23:39:59 23:40:21 10° 53° (NE) 23:40:44 437.325
TIGRISAT 05 Dec 23:40:34 23:43:10 15° 301° (WNW) 23:45:42 435.000
ANTELSAT 05 Dec 23:42:08 23:44:29 14° 302° (WNW) 23:46:50 437.575/2403.000
NANOSAT C BR1 05 Dec 23:50:39 23:54:54 74° 286° (WNW) 23:59:06 145.865
ESTCUBE 1 05 Dec 23:52:14 23:54:00 12° 272° (W) 23:55:47 437.505/2401.250
QB50P2 05 Dec 23:56:15 00:00:27 57° 288° (WNW) 00:04:35 145.880/145.840
POLYITAN 1 05 Dec 23:56:47 00:00:59 59° 288° (WNW) 00:05:08 437.675
AISAT 05 Dec 23:58:08 00:01:28 21° 268° (W) 00:04:51 437.250
50 SAT 06 Dec 00:08:34 00:10:28 14° 269° (W) 00:12:22 437.505
QB50P1 06 Dec 00:10:03 00:14:07 44° 290° (WNW) 00:18:08 145.935-145.965
DUCHIFAT 1 06 Dec 00:13:11 00:17:15 47° 289° (WNW) 00:21:17 145.980
Gurwin Techsat 1B 06 Dec 00:18:39 00:20:28 12° 86° (E) 00:22:18 435.225
Oscar 19 06 Dec 00:23:07 00:27:19 24° 93° (E) 00:31:31 437.125/150
O/OREOS (USA 219) 06 Dec 00:23:11 00:27:09 29° 54° (NE) 00:31:04 437.305
AUBIESAT-1 06 Dec 00:27:37 00:31:28 35° 61° (ENE) 00:35:32 437.475
Cosmos 2499 06 Dec 00:27:42 00:36:18 82° 96° (E) 00:45:15 435.465 / 435.565
POPSAT HIP 1 06 Dec 00:31:52 00:35:31 28° 294° (WNW) 00:39:07 437.405
M-CUBED/EXP-1 PRIME 06 Dec 00:39:19 00:43:23 54° 65° (ENE) 00:47:46 437.505
GONETS M04 06 Dec 00:40:23 00:49:07 86° 97° (E) 00:57:52
SWISSCUBE 06 Dec 00:41:23 00:45:46 38° 67° (ENE) 00:50:10 437.505
PHONESAT 2.4 06 Dec 00:43:08 00:44:13 12° 163° (SSE) 00:45:19 2401.200-2431.200
BEESAT 06 Dec 00:45:28 00:49:50 37° 67° (ENE) 00:54:13 436.000
DX 1 06 Dec 00:51:23 00:52:55 12° 272° (W) 00:54:28 434.975-435.025
TISAT 1 06 Dec 00:56:23 01:00:22 39° 262° (W) 01:04:23 437.305
UKube-1 06 Dec 00:58:39 01:00:30 13° 271° (W) 01:02:24 .
BUGSAT 1 06 Dec 01:11:35 01:15:16 29° 293° (WNW) 01:18:53 437.445
ITUPSAT 1 06 Dec 01:12:32 01:17:16 64° 71° (ENE) 01:22:00 437.325
AO-85 06 Dec 01:13:27 01:17:36 28° 116° (ESE) 01:21:30 145.980
JAS-2 06 Dec 01:21:48 01:24:17 14° 306° (NW) 01:26:46 435.910
AO-7 06 Dec 01:52:11 01:57:25 18° 87° (E) 02:02:38 29.400- 29.500
MOZHAYETS 4 06 Dec 01:53:36 01:57:53 41° 69° (ENE) 02:02:12
Gurwin Techsat 1B 06 Dec 01:55:55 02:01:16 80° 103° (ESE) 02:06:36 435.225
Oscar 19 06 Dec 02:01:54 02:06:54 50° 291° (WNW) 02:11:55 437.125/150
AUBIESAT-1 06 Dec 02:02:18 02:05:54 28° 261° (W) 02:09:44 437.475
O/OREOS (USA 219) 06 Dec 02:02:30 02:06:36 35° 254° (WSW) 02:10:40 437.305
M-CUBED/EXP-1 PRIME 06 Dec 02:15:22 02:18:14 18° 265° (W) 02:21:14 437.505
PHONESAT 2.4 06 Dec 02:16:55 02:18:54 19° 179° (S) 02:20:53 2401.200-2431.200
SO-50 06 Dec 02:18:14 02:21:16 17° 28° (NNE) 02:24:16 436.795
SWISSCUBE 06 Dec 02:19:31 02:23:37 28° 265° (W) 02:27:46 437.505
Cosmos 2499 06 Dec 02:23:21 02:30:31 28° 299° (WNW) 02:37:52 435.465 / 435.565
BEESAT 06 Dec 02:23:33 02:27:41 29° 265° (W) 02:31:50 436.000
KKS-1 06 Dec 02:25:22 02:29:31 39° 68° (ENE) 02:33:42 437.445
ITAMSAT 1 06 Dec 02:29:44 02:34:38 40° 98° (E) 02:39:28 435.822/435.867
STARS 06 Dec 02:32:35 02:36:07 24° 63° (ENE) 02:39:41 437.465
GONETS M04 06 Dec 02:40:20 02:47:09 25° 301° (WNW) 02:54:00
